Wind_Speed
2 1 3 3 3 2 0 1 1 1 1 2 2 1 2 3 4 5 5 4 5 6 9 10 10 9 10 10 12 13 10 6 4 2 3 7 17 20 19 22 23 20 21 18 19 20 19 20 20 20 20 20 19 18 17 17 17 15 17 19 19 19 19 18 17 16 15 13 12 12 12 12 12 13 12 12 12 12 12 12 11 12 12 12 12 11 11 10 10 9 10 10 9 9 10 10 10
3 1 2 1 3 3 0 2 2 0 1 2 2 2 3 2 5 5 6 7 6 9 12 11 10 12 14 12 12 13 11 10 9 7 9 17 18 17 22 24 23 22 21 19 19 19 18 20 19 19 19 19 18 17 17 17 17 15 16 17 17 17 17 18 16 14 13 12 11 11 12 11 12 12 11 11 11 11 11 11 11 11 11 11 11 10 9 9 8 8 8 8 8 7 7 7 7
4 1 2 2 2 2 0 1 2 2 1 1 2 3 6 4 5 5 7 9 7 11 13 10 10 10 11 11 10 10 9 9 12 12 12 20 15 15 23 22 23 22 20 21 20 19 19 21 20 19 19 19 18 17 17 16 16 16 17 16 16 16 16 17 15 13 11 11 11 11 12 11 11 11 11 10 10 10 10 10 10 10 10 9 9 9 8 8 7 6 6 7 6 6 5 5 5
4 4 1 1 1 1 1 1 2 2 1 1 0 3 6 5 4 5 7 8 5 9 10 8 8 8 10 12 9 9 10 9 13 13 11 17 17 20 23 21 22 19 19 19 19 19 19 22 22 20 19 19 19 18 18 17 16 16 17 17 16 15 15 15 15 13 11 11 11 12 12 12 11 11 11 10 10 10 10 10 10 9 8 8 8 8 7 6 6 5 5 5 5 5 4 3 3
6 6 3 2 0 1 2 1 2 1 1 2 1 2 4 7 2 5 6 5 3 8 9 7 8 8 10 9 5 6 9 10 13 14 13 18 23 24 23 22 20 19 18 17 17 16 17 21 20 20 20 19 19 19 19 18 16 16 17 19 17 16 15 14 14 14 12 12 12 12 11 11 11 11 11 10 10 9 9 9 9 8 7 7 6 7 7 6 5 4 4 4 4 4 3 3 2
7 5 4 4 1 1 1 1 1 1 1 1 3 2 3 7 7 4 4 3 5 8 8 7 9 9 8 6 7 6 7 9 12 15 17 23 26 25 22 22 21 20 19 17 16 14 16 19 17 18 17 18 19 18 19 19 18 17 18 19 19 18 17 14 13 13 13 13 12 11 11 11 11 11 11 10 9 9 9 9 8 7 7 7 6 6 6 5 4 3 3 3 3 3 2 2 2
6 2 3 4 2 1 1 1 1 2 1 2 2 3 2 4 8 7 3 3 5 7 5 8 10 9 7 6 7 5 7 9 11 15 20 25 26 25 23 22 23 22 20 20 17 15 19 18 17 16 15 16 16 17 18 19 19 17 18 19 19 17 17 15 13 12 12 12 12 11 11 11 11 11 11 10 9 9 9 8 8 7 7 7 6 6 5 5 4 3 2 2 2 2 2 2 1
9 4 1 0 1 1 1 1 1 2 1 2 3 3 2 3 4 7 5 4 3 4 3 9 9 8 8 7 6 6 10 10 14 21 24 26 25 23 22 22 23 22 21 21 18 19 21 19 18 17 16 15 15 17 16 17 19 18 18 18 18 17 17 16 15 13 11 11 12 11 11 11 11 11 11 11 10 9 9 8 8 7 7 7 6 6 5 5 4 3 2 2 2 2 1 1 1
13 5 2 2 1 0 0 1 0 1 2 2 2 2 4 3 4 6 5 8 6 4 1 6 7 7 8 8 7 6 11 14 19 26 25 24 24 22 22 23 23 22 22 22 21 22 22 19 19 18 17 17 16 17 17 17 19 18 18 17 18 18 17 17 16 15 12 10 11 11 12 12 11 12 12 12 10 9 8 8 8 7 6 6 5 4 3 4 3 3 3 2 2 2 2 2 2
8 5 3 3 2 2 2 1 1 1 1 1 2 1 5 2 5 5 5 6 5 4 2 1 7 9 9 9 7 5 13 18 21 25 25 24 21 21 21 21 23 23 23 23 23 22 22 21 19 18 18 17 18 19 19 19 19 19 18 17 17 18 18 17 16 16 14 12 12 12 13 13 12 12 12 12 11 9 8 9 8 8 7 5 5 4 3 3 3 3 2 2 2 2 2 2 2
3 3 4 3 3 1 2 3 2 0 2 1 2 2 3 2 5 2 6 5 3 6 1 3 8 10 9 7 6 8 16 19 21 24 24 23 20 20 19 19 21 22 24 25 23 23 22 22 20 20 19 19 19 19 19 19 19 18 18 18 18 18 17 17 16 16 16 14 13 13 14 13 12 12 12 12 12 10 9 10 10 8 7 6 5 4 4 4 4 3 2 2 2 2 2 3 3
4 4 1 2 3 3 4 4 4 3 3 1 1 0 2 2 6 2 4 5 4 6 2 5 5 7 8 5 5 10 16 16 19 25 24 22 21 20 18 18 19 21 24 24 23 23 22 21 21 21 20 19 19 19 19 18 19 19 19 18 18 18 17 16 16 15 15 15 14 13 13 12 11 12 13 13 12 11 9 10 11 9 8 6 6 5 5 5 3 2 2 2 2 2 3 4 5
4 5 4 4 4 4 5 4 2 3 2 2 2 1 1 4 4 4 2 2 4 4 3 6 5 3 6 6 6 9 15 16 18 25 24 22 21 19 18 18 19 20 22 23 22 22 21 20 20 20 21 20 19 18 19 19 19 20 20 20 19 19 17 17 16 15 15 14 14 13 12 11 11 11 13 14 13 12 10 10 11 9 8 7 7 6 6 5 3 3 3 3 3 4 4 5 6
3 4 4 4 4 4 5 5 3 2 2 2 2 1 0 4 4 4 3 1 2 3 4 4 7 5 6 7 6 6 13 19 21 26 24 21 21 19 18 17 19 20 20 23 22 21 19 18 19 20 20 20 19 18 18 18 19 19 19 18 18 18 17 16 16 15 15 15 15 14 13 12 11 12 14 15 13 13 11 10 10 9 8 8 7 7 6 4 3 4 5 5 6 6 7 7 7
3 4 2 3 4 4 5 5 6 5 3 4 3 2 1 3 3 1 2 2 2 3 5 1 4 3 7 8 7 8 15 21 21 27 27 22 22 20 19 17 18 18 18 21 22 21 19 18 18 20 20 18 18 17 17 17 16 17 16 16 16 16 16 15 15 14 15 16 15 14 13 13 12 13 14 14 13 12 11 10 9 9 9 9 7 6 5 3 5 7 7 8 8 8 8 8 8
3 4 1 2 3 5 6 6 7 5 4 6 4 1 1 3 2 2 2 1 3 4 5 4 5 3 6 9 10 15 20 23 21 26 29 24 22 20 19 17 17 17 16 18 19 19 19 18 18 20 20 19 19 17 17 16 15 15 15 14 14 14 14 14 14 13 14 15 14 13 12 12 13 14 14 13 12 11 10 10 9 10 9 8 6 5 4 4 6 8 8 8 8 8 8 8 8
3 3 2 3 3 6 7 7 7 5 5 7 5 2 2 2 2 2 5 3 4 5 8 9 10 6 4 10 16 21 23 23 23 25 27 25 21 19 18 17 17 16 15 15 16 17 18 18 17 20 20 18 19 17 16 16 14 15 15 14 13 13 13 13 13 12 13 13 12 13 12 12 12 13 12 11 11 10 10 10 10 11 9 7 5 3 4 6 7 8 7 8 8 8 7 8 8
4 2 3 4 5 6 6 8 7 6 6 7 6 3 3 1 1 4 7 5 5 7 8 8 8 7 3 13 20 23 23 23 23 23 22 22 21 18 16 16 17 16 16 15 15 17 18 18 16 18 19 18 19 16 14 15 15 16 16 14 13 13 13 13 14 13 13 14 13 13 14 14 12 12 12 11 12 11 11 11 11 10 7 5 4 4 6 7 8 7 7 7 7 7 8 9 10
4 2 1 2 6 5 5 7 6 6 5 7 6 3 2 0 1 1 6 4 4 7 4 3 4 5 3 15 20 22 23 22 22 21 20 20 21 20 17 17 18 17 17 16 16 17 17 18 17 17 18 19 19 15 13 15 16 18 16 15 14 13 14 13 15 15 14 16 16 15 15 15 13 13 13 12 12 12 12 10 9 7 5 4 5 6 8 8 8 7 6 7 7 7 8 9 9
3 2 3 3 5 4 7 6 5 6 5 5 5 4 3 3 1 2 5 5 4 5 4 3 3 4 8 13 17 21 22 22 22 21 20 18 18 20 20 19 19 19 18 17 18 17 17 19 19 17 17 18 18 16 15 16 18 19 17 14 14 14 14 13 14 15 16 17 17 16 15 14 14 15 14 13 13 12 11 8 6 5 5 6 7 8 9 8 7 6 6 6 6 6 7 7 8
1 3 4 5 4 5 7 6 6 5 4 4 4 4 3 3 3 2 4 4 3 5 6 5 5 7 9 12 15 18 18 20 21 20 19 17 15 16 19 20 19 20 19 19 19 18 19 20 20 19 18 17 17 17 17 18 18 19 18 15 16 16 15 15 14 14 15 16 17 16 14 13 14 15 14 13 13 12 10 7 7 8 9 9 9 9 8 7 6 5 6 7 6 6 7 7 8
3 6 5 5 5 6 7 6 6 5 4 5 5 5 2 3 4 2 3 2 2 5 7 7 7 6 8 12 14 16 17 17 18 19 18 18 17 14 16 20 20 20 19 19 19 18 19 20 21 21 20 18 17 18 19 18 18 18 18 16 17 18 17 18 16 14 15 16 16 15 15 14 14 14 13 12 12 11 9 9 10 11 11 11 10 8 7 7 7 7 8 9 8 8 8 8 9
1 5 5 7 6 7 5 4 4 4 5 7 6 4 1 6 3 3 5 4 3 5 8 9 9 8 10 13 13 14 16 16 16 18 17 18 19 17 17 20 19 19 18 18 19 18 20 20 21 21 21 20 17 17 18 18 17 16 17 17 17 18 17 18 17 15 15 16 15 14 15 14 14 14 13 11 12 12 11 12 13 13 13 13 11 9 7 8 9 8 8 8 9 9 7 8 10
2 2 2 7 4 7 4 4 5 5 6 6 4 2 1 6 2 6 5 5 5 5 8 8 9 10 11 12 14 13 15 16 17 18 17 16 18 18 19 20 19 18 17 18 18 18 20 21 21 21 21 22 21 17 17 18 17 16 17 17 16 16 17 16 16 15 14 15 14 13 14 14 14 14 14 13 13 13 13 14 14 14 15 13 12 11 9 8 8 7 7 7 8 8 7 8 10
4 3 2 6 2 9 6 5 5 5 5 3 1 1 2 5 3 4 5 5 6 5 6 5 5 11 12 11 13 14 14 16 17 18 17 15 16 18 19 19 19 18 18 18 18 18 19 21 21 22 21 22 22 19 17 17 16 18 18 17 15 15 16 15 15 14 13 14 13 12 13 14 15 14 14 15 15 14 14 14 14 13 16 14 12 13 11 7 7 7 6 7 6 7 8 8 9
3 6 6 6 4 7 7 5 4 4 3 2 1 0 1 5 6 4 5 6 6 6 6 3 3 10 13 12 12 13 14 15 16 18 19 17 15 17 20 19 19 19 19 19 18 19 20 21 21 22 22 22 21 20 20 16 15 18 17 16 16 16 14 13 14 15 16 15 13 14 14 14 16 14 14 16 17 15 14 14 13 12 13 11 12 13 9 6 6 7 7 7 5 7 7 6 9
3 9 8 7 5 4 6 4 3 2 0 1 2 1 1 4 5 3 5 7 6 5 6 6 6 10 11 12 10 10 12 13 15 18 19 17 14 15 20 19 18 18 19 20 19 18 20 21 20 20 21 22 21 21 23 20 18 17 15 15 15 14 13 14 15 16 17 16 13 13 12 10 12 13 15 16 15 13 12 12 10 9 9 8 10 9 6 6 6 6 6 5 5 6 6 6 9
5 10 8 8 5 5 3 3 2 1 1 3 1 2 2 4 4 2 6 7 6 6 6 6 7 7 8 10 10 8 11 13 15 16 16 16 15 15 19 18 18 19 19 20 20 20 21 20 20 20 21 21 21 21 22 23 24 22 18 17 15 13 12 13 15 15 15 14 13 12 10 10 9 11 15 15 12 12 11 10 9 7 6 6 6 6 5 4 4 5 3 4 6 6 7 8 8
8 9 6 9 4 5 1 4 1 0 1 5 3 1 3 6 5 3 7 7 7 6 5 4 6 6 7 9 10 7 8 11 13 14 15 18 18 18 19 19 19 19 19 18 19 21 22 21 20 21 21 20 19 20 20 20 22 22 19 19 19 17 13 13 17 18 18 16 15 14 12 13 11 8 12 12 9 10 10 9 9 7 6 5 3 4 4 3 6 7 4 7 10 10 6 5 6
9 9 6 7 2 3 5 5 3 4 2 4 3 3 4 6 6 6 8 8 8 6 5 4 6 7 7 8 10 8 7 9 12 14 15 16 17 18 20 21 23 21 18 17 18 20 21 22 21 20 20 19 18 19 18 17 18 19 17 18 19 19 17 18 19 19 19 16 14 14 12 12 10 7 9 9 7 8 7 7 7 6 6 6 4 4 4 4 6 7 6 9 14 14 7 4 4
8 8 6 3 2 1 7 8 7 6 5 7 4 5 2 5 8 9 10 10 9 8 8 6 7 7 7 8 9 8 8 11 13 14 15 15 15 16 17 19 23 24 23 20 19 19 19 22 22 19 20 19 18 18 18 16 17 18 17 16 16 17 17 17 16 15 15 13 13 13 11 11 9 7 8 8 7 6 6 7 6 5 5 5 4 4 4 4 4 5 6 7 8 10 12 5 4
7 6 6 2 2 2 6 10 9 5 6 10 6 5 2 5 9 11 10 10 9 7 8 8 8 8 7 7 9 9 9 12 13 14 15 16 15 16 16 17 18 22 26 24 21 21 19 20 20 19 21 20 17 18 18 16 15 16 16 15 15 15 14 13 13 13 13 13 13 13 12 11 10 8 9 9 7 5 5 7 7 6 5 4 4 5 4 4 5 6 5 6 6 3 13 8 3
5 6 6 2 2 3 6 10 10 6 7 11 8 5 5 5 11 13 11 11 10 7 8 8 7 7 7 7 8 9 9 10 11 13 15 15 14 15 16 18 17 17 22 23 24 25 20 19 20 20 21 19 18 18 17 16 15 15 14 13 13 13 12 12 12 12 12 13 13 13 13 12 11 10 9 10 9 5 5 6 5 6 5 4 6 7 6 6 5 6 6 6 7 4 5 9 6
3 4 5 3 3 3 5 8 10 9 8 9 12 11 10 7 14 14 13 13 12 10 8 8 6 7 7 7 8 7 8 9 9 10 13 13 12 14 15 17 18 18 18 20 22 22 20 20 19 20 21 19 18 18 17 16 15 14 13 12 12 12 11 11 11 11 11 12 13 14 14 12 10 10 10 9 9 6 5 6 4 3 4 5 6 6 6 5 4 6 8 8 6 6 6 2 9
5 3 5 5 4 5 8 5 9 12 10 8 11 12 10 10 16 14 15 14 13 11 8 8 9 8 7 7 7 4 7 10 9 10 14 13 12 13 15 16 17 18 17 18 20 19 20 20 18 20 21 19 19 18 17 15 13 13 12 11 12 12 11 10 11 10 10 11 12 13 13 12 10 10 10 9 9 7 4 5 5 3 4 4 5 6 6 5 4 5 6 8 7 6 8 3 4
8 8 7 8 5 7 11 5 7 7 4 6 7 8 5 9 17 14 15 14 12 11 7 7 8 8 8 8 6 5 7 10 10 12 14 16 15 14 15 16 16 17 17 19 20 18 20 20 18 20 21 20 20 19 17 15 14 13 12 12 12 12 11 11 11 11 10 10 11 12 11 11 11 11 10 10 9 8 6 6 6 5 6 5 6 6 6 6 4 5 6 7 8 8 7 4 1
9 8 9 9 7 7 12 7 5 5 4 6 8 12 6 10 16 15 15 15 13 11 9 9 10 10 10 11 10 8 7 8 10 12 11 12 16 13 13 15 15 16 16 18 19 17 20 21 19 20 21 21 20 19 18 15 15 14 13 13 12 12 12 12 12 12 12 11 11 13 12 11 12 12 11 11 9 9 8 7 6 6 6 6 7 6 5 5 5 6 8 8 9 9 7 3 3
9 9 9 9 7 7 11 8 4 6 1 5 7 10 6 7 12 15 15 15 14 13 13 12 13 12 9 9 10 8 7 7 7 8 6 10 14 13 13 15 15 17 15 16 18 17 19 19 19 20 20 21 20 18 18 16 15 15 14 13 12 12 13 13 12 12 12 11 11 13 12 11 12 12 12 11 10 9 9 7 7 7 7 7 7 6 5 6 7 7 8 9 9 8 8 3 1
9 8 8 7 7 9 8 5 2 5 3 6 7 6 6 5 8 16 16 14 12 12 11 10 12 12 9 9 8 7 8 4 1 3 5 12 17 16 14 15 15 16 16 17 17 17 18 18 19 20 19 20 19 18 18 16 15 14 13 13 13 13 13 13 12 12 12 12 13 13 11 12 12 12 12 11 11 10 9 9 8 8 8 8 8 7 6 7 8 8 8 9 9 7 8 4 2
8 7 8 7 8 9 3 2 4 3 6 8 3 2 4 4 7 14 15 11 9 10 10 10 10 9 9 8 6 7 8 4 2 3 3 11 16 15 13 14 14 15 16 18 17 16 17 17 19 20 18 18 18 18 18 15 14 14 13 12 13 13 14 14 13 12 13 12 13 15 12 13 13 12 12 11 11 10 10 10 9 9 9 9 8 7 7 7 7 9 9 9 7 6 8 6 3
8 10 8 8 11 9 3 4 9 8 11 8 4 3 2 4 3 3 10 10 9 10 11 12 10 6 4 5 5 6 7 6 5 6 7 11 14 14 12 11 11 14 15 17 17 17 17 17 18 19 18 18 18 18 18 15 14 14 12 10 11 12 12 15 15 13 13 12 11 13 13 13 13 12 12 12 11 11 11 11 10 10 9 9 8 7 7 8 8 9 9 8 7 6 8 9 6
9 10 11 12 11 6 6 9 11 7 8 4 2 6 1 6 5 3 8 10 10 11 12 12 9 8 6 4 5 6 5 4 5 7 11 14 15 14 13 11 11 14 16 17 18 17 17 18 19 19 19 18 17 18 18 16 15 15 13 10 10 11 10 12 15 14 13 13 11 12 12 12 13 12 12 12 12 11 11 11 11 10 10 9 9 8 8 8 8 8 8 8 8 7 6 6 6
7 2 7 12 7 6 7 10 10 6 7 5 2 5 4 2 3 6 10 10 11 12 12 14 10 9 10 7 8 8 8 7 7 9 12 13 15 14 13 13 12 14 16 17 18 17 17 18 19 19 19 18 17 18 19 17 15 15 15 12 11 11 10 10 11 12 11 11 11 11 10 11 13 12 12 12 12 12 11 12 12 11 11 10 10 9 9 9 9 8 7 7 6 5 3 3 5
6 3 6 11 9 8 11 11 8 7 8 5 3 2 3 4 1 9 11 9 10 11 12 13 11 11 11 8 10 12 13 14 9 9 12 11 12 12 13 15 13 14 17 17 18 18 17 19 20 19 19 19 17 18 20 19 17 16 16 14 13 12 12 12 11 10 9 7 9 10 9 9 10 12 13 13 12 12 12 12 13 13 12 11 10 10 10 9 9 8 7 5 4 4 3 4 7
9 6 8 8 9 11 11 9 8 7 8 5 1 2 5 4 2 7 9 8 8 10 11 12 12 12 10 8 9 9 11 14 12 10 12 11 12 12 14 16 15 17 19 18 18 18 17 18 20 20 19 19 18 18 20 20 18 17 17 15 14 13 13 12 11 11 10 7 8 10 10 8 7 10 13 13 13 13 14 14 14 14 13 12 11 10 10 10 7 7 7 5 4 5 5 7 9
10 10 10 8 10 11 9 8 7 6 7 6 5 6 7 4 3 4 5 8 7 8 10 10 10 11 10 10 11 11 10 10 12 13 10 10 15 17 17 18 16 17 20 20 19 19 18 17 19 20 20 20 19 18 20 21 19 17 17 16 14 14 13 11 12 14 13 11 11 11 11 9 8 9 11 11 12 13 14 14 14 14 14 13 12 11 11 10 7 8 8 7 6 7 7 7 9
10 10 9 9 10 9 9 7 5 5 6 6 7 7 6 5 1 3 3 4 1 6 9 8 8 10 12 12 11 13 12 9 10 12 9 6 13 17 19 19 17 17 20 20 19 20 20 18 19 20 21 21 19 19 20 20 19 17 17 16 14 14 13 11 13 16 15 14 14 13 12 10 8 9 10 10 11 13 13 14 14 13 14 14 13 12 12 10 8 8 8 8 8 10 10 8 9
8 7 7 7 7 7 6 4 3 5 5 5 9 7 5 5 1 1 4 3 6 8 11 9 10 11 12 11 8 10 12 11 12 11 10 9 12 14 18 19 18 17 19 21 20 19 19 19 20 20 20 21 20 19 20 20 19 17 16 15 14 15 14 12 13 16 17 17 16 14 14 13 11 11 11 10 12 13 13 14 14 14 14 13 12 12 12 10 9 9 7 7 8 9 10 10 10
7 6 5 5 5 4 4 4 3 6 6 4 6 4 2 6 4 3 3 6 9 11 14 13 13 12 11 11 10 9 9 11 13 9 8 10 11 12 17 18 17 16 18 20 20 19 18 19 21 23 22 21 20 20 19 19 18 15 14 14 14 16 16 15 15 15 16 18 17 15 14 13 12 12 11 11 11 12 12 14 15 15 16 16 13 12 13 13 12 10 8 7 6 7 9 10 11
7 7 5 4 5 5 4 5 4 5 6 5 4 2 1 5 2 3 3 7 10 11 16 15 14 14 12 13 12 9 9 11 12 11 9 10 11 13 15 16 16 17 18 20 19 19 19 18 20 24 23 21 21 19 19 19 17 16 16 16 17 18 18 17 17 16 15 16 16 16 16 13 10 10 10 12 12 11 12 14 15 16 16 17 16 15 16 16 14 12 10 8 8 9 10 10 12
6 7 6 4 5 6 5 6 5 5 6 7 5 1 1 3 1 3 5 10 9 11 15 13 13 14 12 12 13 11 11 12 12 13 13 13 13 15 16 16 17 19 20 20 19 19 20 19 20 22 21 20 21 20 19 17 17 20 22 20 20 20 20 19 18 17 16 15 15 15 16 14 12 11 10 11 11 9 9 12 14 16 16 16 15 14 15 14 13 12 11 11 10 10 11 10 11
6 6 5 5 6 6 4 7 8 8 7 6 6 1 2 0 3 4 5 9 10 13 17 13 9 11 10 9 12 11 10 12 13 13 13 14 14 15 16 17 18 20 20 20 20 20 19 19 20 20 19 20 21 20 19 18 18 22 24 23 22 21 21 20 19 19 18 17 16 16 16 15 14 14 12 13 13 10 9 10 12 14 16 17 15 13 14 13 12 13 13 13 12 10 11 11 12
5 6 4 7 8 5 4 7 7 8 6 3 4 4 1 1 3 6 8 6 8 10 13 13 9 10 11 8 8 10 9 10 12 12 12 13 14 16 17 17 18 20 20 20 21 21 20 18 20 21 19 18 18 17 18 18 19 21 22 22 23 21 21 21 20 20 20 19 19 18 18 16 15 15 13 13 14 11 10 10 9 10 13 15 14 14 15 13 12 14 14 13 11 9 10 12 13
7 7 6 11 9 4 2 5 5 6 5 2 5 5 3 2 1 6 3 3 8 9 9 13 10 6 7 7 7 8 8 9 10 10 12 13 14 17 19 20 21 22 21 21 21 21 19 16 18 21 20 19 20 19 18 19 20 21 21 22 22 19 19 20 19 19 19 19 20 20 20 19 18 17 14 12 12 10 9 9 9 10 11 12 13 15 15 13 12 15 14 13 12 10 11 13 13
10 10 9 8 6 4 2 3 4 5 5 3 6 7 4 3 2 5 3 6 9 8 9 10 10 7 5 6 7 7 8 9 9 9 9 11 13 17 20 20 22 22 21 21 20 19 17 14 16 18 18 18 19 19 19 20 21 21 21 21 20 18 16 17 16 15 17 18 19 20 21 20 18 16 15 14 13 11 10 10 11 13 13 13 14 15 14 13 14 15 15 14 13 11 12 14 13
9 8 8 6 5 5 4 4 5 5 5 4 6 5 3 3 3 6 10 13 11 8 9 8 5 8 8 7 5 5 8 9 8 8 8 10 12 17 20 20 21 20 18 19 18 15 15 16 17 16 15 18 18 21 23 21 20 20 19 18 19 18 16 15 14 12 14 16 18 19 19 19 17 15 15 15 14 12 11 11 12 13 13 14 14 14 14 14 13 13 13 13 11 10 10 11 11
6 6 6 6 5 5 5 4 5 6 5 5 6 5 2 5 5 7 11 10 9 9 11 11 9 2 4 7 5 3 6 11 10 9 10 11 12 16 19 20 20 19 18 18 17 15 16 16 17 16 17 22 23 24 24 20 19 19 18 17 18 18 18 16 13 11 13 14 14 16 17 17 18 18 18 18 16 14 13 14 13 12 13 14 15 16 16 14 14 14 14 13 12 12 12 10 9
7 6 6 7 6 4 5 5 5 6 6 5 7 5 3 6 6 7 8 7 8 9 8 8 7 1 1 5 8 5 5 8 10 11 12 12 12 14 17 19 18 18 18 17 16 16 17 17 17 18 22 25 26 26 22 19 19 18 17 17 18 18 18 15 13 13 14 13 13 14 15 17 19 20 20 19 17 15 15 15 14 14 14 15 16 17 15 13 13 13 13 12 10 11 10 9 9
Wind_Direction
319 275 276 283 310 303 359 332 273 151 167 285 274 144 196 154 88 95 106 101 99 80 74 68 62 79 92 87 92 79 62 60 47 117 104 124 135 143 149 139 138 138 138 141 145 145 144 148 150 150 149 147 145 144 141 138 136 136 149 158 159 157 155 149 141 135 131 128 123 121 121 121 120 121 121 119 114 109 105 104 103 100 98 96 95 94 92 92 90 89 88 89 88 88 91 93 98
262 255 265 257 348 320 35 322 293 170 169 309 322 4 315 15 72 78 87 88 84 88 84 79 81 88 94 97 100 83 64 64 78 92 101 126 132 136 139 138 138 137 139 140 142 143 145 149 150 150 149 148 147 147 142 138 138 137 142 150 157 159 159 154 149 144 139 134 130 127 126 126 125 125 127 126 121 117 111 108 109 107 103 101 100 99 98 98 97 97 95 94 93 92 94 94 98
258 291 216 170 39 341 285 285 313 3 25 313 333 334 310 339 59 51 71 82 79 88 90 90 86 80 86 81 81 85 86 86 99 105 114 129 133 142 140 137 136 135 137 138 141 144 148 150 151 152 150 150 150 149 144 142 142 140 141 144 151 159 164 163 160 156 149 143 139 136 134 132 131 130 130 131 128 124 119 115 116 113 109 108 107 106 105 105 105 105 103 99 97 99 100 100 100
259 290 281 233 29 356 305 327 351 2 8 329 291 354 331 330 44 47 61 78 92 97 92 92 79 63 82 86 87 93 100 106 112 117 124 134 140 145 140 135 134 132 132 134 138 141 148 151 152 153 152 152 154 152 147 146 145 142 143 143 147 154 163 168 168 165 158 153 148 145 142 139 137 136 135 134 133 130 126 124 124 120 118 118 117 115 112 111 113 112 110 107 105 106 109 114 116
262 282 7 342 285 22 312 348 358 349 349 324 316 18 324 299 358 66 62 66 94 94 86 93 95 82 80 83 90 95 102 114 124 126 122 128 137 140 139 136 132 129 128 130 134 137 149 151 149 150 149 151 155 156 153 152 148 146 147 147 148 150 155 163 169 169 164 159 153 149 147 146 143 140 140 139 138 136 133 130 130 129 127 128 125 123 120 122 124 124 119 114 112 112 121 131 139
253 264 32 16 29 21 312 25 334 11 72 255 297 322 303 307 335 27 88 89 71 77 82 88 101 100 84 68 61 84 114 118 125 126 124 129 136 137 136 135 130 129 130 131 135 140 151 152 147 146 145 145 151 155 159 160 154 151 152 152 154 155 153 154 163 168 168 163 157 153 152 151 147 144 145 143 143 142 140 140 140 140 143 143 137 131 132 138 143 143 133 117 119 126 137 142 157
228 202 53 34 23 246 350 5 303 7 139 186 266 278 310 318 324 336 25 85 88 88 95 105 114 109 98 94 74 93 122 116 119 126 131 135 138 136 133 134 131 131 133 134 142 147 149 150 146 147 145 144 149 155 164 168 162 157 156 158 159 159 156 155 159 163 167 166 161 158 157 155 151 150 149 147 148 148 146 148 153 156 162 160 152 148 149 157 164 164 146 126 132 147 154 151 165
211 190 217 139 16 319 39 309 278 358 222 210 249 263 287 247 298 324 345 356 83 108 117 122 126 106 93 103 101 113 116 116 122 128 133 134 137 137 134 135 132 132 132 135 142 145 143 146 146 147 146 148 156 159 166 171 167 159 160 166 162 160 162 165 167 164 166 170 164 161 161 159 159 158 156 153 153 154 151 156 164 169 174 168 163 164 164 172 178 175 154 141 155 166 161 169 186
203 194 245 212 129 326 191 239 318 347 226 230 254 274 279 265 1 335 342 357 18 54 91 122 111 106 104 104 110 118 116 121 124 129 134 132 134 134 135 135 133 133 133 134 137 140 143 144 145 146 148 152 160 161 164 170 171 166 165 170 167 165 167 171 175 172 172 179 174 169 169 170 174 169 162 163 162 160 162 170 176 182 186 177 174 177 180 189 192 188 173 163 176 182 185 190 203
198 195 216 232 202 197 180 131 64 329 212 235 277 275 281 322 47 329 346 13 26 46 298 97 96 114 116 110 115 123 122 127 128 131 135 132 131 129 131 132 132 134 133 134 135 140 145 144 143 144 147 152 157 159 159 163 168 169 167 169 172 171 173 175 177 176 178 189 188 184 184 182 183 174 168 171 169 165 173 185 190 195 197 190 194 200 201 210 213 206 187 179 195 196 205 210 223
248 213 192 237 263 298 58 103 117 229 178 188 253 207 261 343 90 347 356 357 36 72 3 51 89 107 104 103 109 128 130 133 137 136 135 133 130 127 128 128 131 133 132 134 136 141 143 144 145 144 145 147 152 154 155 158 162 165 166 169 173 172 175 178 178 179 180 192 194 194 195 187 183 177 175 178 176 173 181 195 199 201 201 201 209 216 218 225 225 219 206 193 210 210 215 232 241
301 305 281 268 301 4 35 93 144 179 161 155 284 215 233 44 76 49 2 330 4 76 65 58 98 111 104 105 108 136 131 128 138 134 133 132 128 128 130 129 130 129 130 133 136 139 141 143 145 146 148 148 149 151 153 158 162 164 165 169 173 172 174 175 180 182 181 189 191 195 199 187 182 181 182 184 185 185 190 202 205 205 203 208 213 217 219 219 213 207 219 212 225 231 232 241 246
322 320 341 315 333 9 19 56 128 164 124 41 24 5 316 70 107 202 157 326 349 85 49 54 107 116 105 116 124 145 132 134 142 131 129 129 129 131 128 130 131 128 130 131 133 136 138 141 143 146 150 149 150 153 154 158 161 161 162 166 169 170 173 174 179 182 182 188 189 194 194 188 189 185 186 189 193 197 202 208 207 205 202 209 210 205 208 201 197 213 228 224 231 235 235 238 242
311 319 350 320 330 14 20 18 360 42 61 42 32 345 19 87 153 203 120 86 358 58 5 63 132 132 113 123 135 153 137 144 144 130 130 129 129 133 129 129 130 130 130 130 132 135 139 143 145 147 149 149 151 155 155 158 159 157 159 162 164 166 170 173 174 178 181 185 189 193 189 187 192 186 185 189 194 200 206 207 199 193 198 207 200 193 202 197 206 233 238 233 239 239 240 247 249
275 315 351 321 328 19 26 8 360 18 50 75 35 316 112 95 124 89 89 146 70 31 326 93 155 156 143 146 150 157 143 146 144 131 132 131 129 132 132 129 127 130 131 131 132 135 140 145 148 149 152 153 151 155 156 159 161 160 161 162 163 165 167 169 172 176 176 180 185 185 182 182 185 184 184 188 196 200 201 197 185 182 196 201 195 196 205 206 225 238 242 245 250 247 247 256 260
269 298 336 309 319 20 18 5 6 9 27 45 46 317 141 111 80 70 130 160 77 29 343 12 356 350 151 159 150 150 146 147 149 134 130 132 132 133 134 132 132 132 132 134 134 135 138 143 149 154 158 159 155 154 156 160 166 166 165 164 164 164 165 169 173 176 172 176 179 172 170 172 175 181 183 187 192 192 187 183 179 183 194 198 196 200 201 211 234 242 246 250 253 253 255 263 267
289 283 2 314 335 35 16 7 10 360 5 12 29 3 292 131 85 159 148 103 74 43 18 15 353 342 146 154 149 149 149 148 150 141 134 135 136 135 135 137 139 138 139 139 137 138 139 142 151 158 159 161 158 153 154 161 168 166 163 163 165 163 165 169 170 174 168 167 170 163 162 167 171 176 179 182 180 177 179 182 182 183 191 198 199 197 202 222 240 246 246 252 256 257 263 267 266
287 327 28 319 359 44 18 9 14 358 359 359 13 15 325 49 120 178 142 93 81 62 34 20 354 330 91 138 149 149 151 152 148 145 145 145 141 138 140 145 145 143 145 143 144 145 144 146 154 162 159 161 163 156 154 161 165 162 159 163 166 167 170 169 165 167 165 163 166 166 167 167 168 173 173 172 176 176 181 186 183 184 193 204 215 214 219 231 243 250 253 259 261 261 263 262 262
295 13 360 332 20 57 49 15 14 7 6 3 7 44 21 57 307 126 123 113 96 81 71 64 26 317 145 141 151 150 153 155 149 150 156 158 151 145 146 151 150 149 150 150 153 151 149 148 153 163 161 162 169 165 159 161 163 159 158 164 167 169 171 169 164 164 169 169 168 171 171 164 166 173 171 174 182 182 188 192 183 184 199 215 229 226 229 237 244 256 261 262 258 258 257 254 258
295 322 313 22 25 55 65 29 22 12 2 3 6 45 55 152 161 9 113 123 111 105 140 149 123 191 166 151 153 153 158 157 153 159 164 163 158 154 151 152 154 154 156 155 155 155 153 150 151 161 161 161 168 169 167 165 165 163 161 164 169 169 169 171 168 168 176 174 168 171 169 163 172 175 173 182 188 185 190 196 183 185 204 216 226 228 234 239 248 263 263 260 258 259 264 267 270
295 316 335 27 8 41 49 35 43 5 348 357 5 54 55 126 112 89 135 128 128 148 173 186 181 174 154 160 162 158 163 157 158 167 165 160 158 162 155 152 155 155 157 155 156 158 155 153 153 156 159 161 168 170 171 171 168 170 169 166 171 170 167 174 175 172 175 172 167 170 172 173 180 179 177 184 184 179 184 192 190 194 202 206 215 228 237 246 261 265 256 256 265 275 272 273 280
22 321 331 9 353 50 41 43 53 350 356 3 12 55 71 97 76 120 173 164 133 147 167 181 184 184 166 169 170 166 163 159 166 168 165 160 157 168 156 147 153 155 156 156 158 161 156 154 153 154 158 164 171 169 170 173 171 174 174 171 173 171 170 176 179 177 175 176 174 177 180 179 179 178 175 176 177 177 182 192 197 199 200 201 209 223 228 237 244 243 253 260 270 284 274 268 281
65 289 321 343 343 61 46 61 63 346 18 17 23 33 103 104 78 230 190 152 159 152 160 176 175 190 194 175 173 175 165 162 172 166 166 165 157 168 157 145 153 156 156 157 158 162 159 156 154 156 158 162 168 168 169 171 176 181 178 177 178 175 174 178 184 182 177 181 184 182 180 173 172 172 168 173 181 184 190 196 202 204 199 198 206 215 220 227 236 246 265 271 272 282 280 286 296
237 223 355 322 331 77 50 55 52 9 31 30 39 4 63 108 135 226 179 152 184 155 153 181 176 190 200 180 175 176 169 169 171 164 166 170 164 164 154 147 153 154 155 156 157 162 163 160 157 158 158 161 164 169 177 177 183 186 183 182 180 182 180 181 190 188 179 181 183 181 175 168 171 175 177 190 195 193 198 200 204 204 198 199 202 208 221 230 246 261 276 289 288 286 280 287 296
308 343 320 295 346 82 58 49 41 13 34 31 51 351 41 111 155 194 173 177 185 150 160 189 182 189 183 178 181 173 176 175 167 164 166 176 175 161 153 154 153 153 158 157 159 163 166 164 160 160 159 163 164 166 178 183 185 180 180 181 177 186 187 186 192 191 187 184 184 181 175 175 180 185 189 198 203 200 201 203 206 203 195 197 194 199 217 234 264 272 279 294 298 296 286 287 301
2 294 282 304 341 79 73 53 36 20 30 338 334 23 80 133 162 182 191 206 186 154 162 159 253 211 174 173 185 173 180 176 166 167 164 172 181 163 156 162 157 157 162 161 165 165 165 165 163 163 163 168 166 164 170 178 186 176 172 177 179 185 189 192 193 192 191 187 191 185 180 185 186 194 200 199 204 200 197 202 208 205 191 188 186 189 209 232 266 285 294 293 285 295 282 284 314
355 282 294 314 298 108 88 46 37 18 31 299 332 285 187 156 185 197 183 212 211 177 169 165 229 222 174 169 176 177 186 177 171 170 164 165 177 167 154 161 165 162 162 164 168 164 160 164 167 167 166 170 168 167 169 169 176 172 165 177 185 184 185 193 188 187 189 185 190 187 184 183 182 207 211 199 197 191 191 198 203 201 186 187 186 186 221 251 260 279 297 273 262 276 246 260 308
309 285 308 303 283 100 67 350 51 5 150 157 309 286 229 185 216 213 170 197 210 195 177 173 207 206 182 168 161 191 190 176 177 174 167 163 174 172 154 163 170 164 165 167 168 164 162 165 170 170 170 173 169 167 167 164 169 170 170 176 183 186 186 187 178 178 187 184 182 186 191 180 185 214 203 191 189 186 190 191 195 200 195 199 188 193 226 262 247 241 287 269 238 229 221 252 286
287 279 287 288 299 90 288 299 79 306 123 135 129 310 250 209 211 184 166 176 193 185 144 165 193 187 198 167 159 200 193 184 184 177 176 167 173 176 162 166 168 166 170 169 169 166 165 166 168 171 172 173 171 167 164 164 167 168 173 174 174 179 181 183 181 181 185 182 179 188 196 189 192 196 182 184 183 187 192 184 191 194 199 212 182 186 201 224 215 205 287 289 231 212 219 242 241
273 274 260 277 349 100 241 255 227 223 192 135 138 300 264 206 186 160 161 168 187 179 136 203 208 183 203 180 173 183 178 203 192 178 182 170 173 178 170 167 165 167 167 169 176 170 166 167 166 170 170 173 175 167 163 166 166 166 172 171 171 175 179 185 184 178 177 177 180 188 193 190 187 168 173 186 175 185 192 186 201 189 194 218 208 208 224 244 222 209 268 263 216 204 203 220 236
259 258 254 258 87 223 235 226 230 223 180 155 176 295 278 175 167 158 164 170 186 182 159 207 220 190 200 189 181 171 178 208 193 182 182 174 179 179 174 171 166 164 163 172 181 173 171 165 162 168 169 173 175 166 163 168 167 166 172 172 173 177 179 183 180 173 174 178 183 186 188 189 183 171 178 185 184 203 199 189 206 204 202 208 215 236 235 253 270 254 272 267 221 184 172 202 308
250 253 264 234 153 251 236 223 233 225 179 169 184 292 288 174 167 163 165 165 181 192 176 200 211 195 203 197 186 180 190 197 190 191 181 177 185 177 175 176 172 164 163 171 173 174 179 164 161 167 168 172 172 166 165 169 169 169 173 173 175 179 179 179 179 178 179 181 184 184 186 188 184 180 184 183 185 215 219 200 197 205 215 202 218 251 240 246 275 273 285 293 293 162 158 178 275
243 245 259 236 186 221 215 213 216 215 198 182 189 262 279 185 164 162 162 164 175 190 194 200 205 202 208 213 201 187 187 185 190 196 182 180 185 179 178 175 176 171 166 167 166 175 177 162 167 167 166 172 170 166 166 168 171 172 175 173 174 181 180 180 185 187 183 181 184 189 187 185 186 184 190 189 179 192 227 226 204 195 215 224 228 250 251 247 267 272 285 285 294 317 174 167 160
260 251 267 281 277 256 234 205 186 198 210 193 194 224 249 192 159 159 161 168 176 185 196 190 201 221 213 224 224 196 181 184 192 193 184 183 185 183 178 174 176 175 174 169 166 175 170 163 173 166 163 171 167 165 166 167 171 173 177 177 176 181 184 182 188 196 192 184 185 190 185 179 188 189 194 197 185 192 222 233 242 198 200 224 232 249 257 256 275 276 283 290 297 309 295 153 133
297 318 297 305 306 279 280 249 168 180 203 218 213 224 240 181 153 157 163 171 180 184 188 176 190 216 214 229 244 222 193 191 189 194 188 177 188 192 175 176 179 171 177 171 167 175 165 164 171 160 162 168 165 165 166 167 170 172 178 182 178 181 190 185 187 201 202 192 181 182 180 176 192 197 197 202 194 196 218 229 245 238 218 238 251 257 268 271 282 289 286 293 305 303 292 293 128
318 337 309 310 307 277 288 286 142 153 212 265 283 291 286 151 150 158 163 175 186 182 173 164 182 204 205 211 225 227 219 201 180 191 195 178 188 193 170 179 180 170 178 170 169 174 160 162 166 158 163 164 162 165 167 170 172 176 180 184 181 180 190 186 187 199 205 203 184 179 183 180 192 201 200 206 199 196 212 225 227 231 234 245 255 258 276 283 281 297 296 291 296 293 286 289 351
326 319 287 283 276 277 292 298 103 87 328 307 304 303 331 114 147 163 164 178 189 186 187 180 185 202 207 204 203 213 231 223 188 187 204 186 183 182 169 182 178 171 180 168 169 173 159 163 165 160 165 164 163 167 172 176 176 179 184 187 184 180 189 189 191 199 203 208 191 182 186 184 193 200 202 206 202 202 212 222 225 228 235 242 253 260 275 287 287 293 298 294 285 281 284 287 307
305 289 281 285 281 272 276 285 106 115 268 287 278 283 326 84 145 164 169 183 186 191 196 185 187 198 210 214 206 202 212 226 198 176 207 201 184 178 178 186 177 172 175 167 173 173 162 166 166 164 166 164 167 170 174 180 180 181 186 190 188 181 188 192 195 201 206 207 188 177 180 183 195 199 202 206 205 210 214 219 227 229 237 244 253 262 270 278 281 282 286 288 287 290 292 282 277
287 279 277 272 268 272 266 261 204 142 175 259 257 276 321 41 138 165 177 187 187 194 190 175 187 196 205 215 208 205 199 202 205 155 212 213 190 178 183 186 178 174 172 171 178 173 165 167 166 167 167 165 170 173 176 182 182 184 187 191 192 186 188 193 199 202 210 212 188 178 184 186 195 202 203 206 207 212 215 221 230 233 238 242 246 254 264 270 274 275 274 272 279 293 298 319 4
269 262 274 276 264 277 279 220 273 290 267 261 247 309 335 54 133 172 181 181 178 189 188 183 189 192 203 193 178 217 207 178 213 187 233 227 195 177 186 187 174 173 174 172 178 176 171 172 167 168 173 171 174 177 179 183 183 186 190 194 197 193 188 189 200 206 216 221 190 180 194 196 196 203 205 207 210 214 217 222 229 235 238 238 243 247 251 261 265 266 265 264 278 302 301 312 324
254 237 245 269 263 272 324 316 311 308 286 300 11 326 329 66 37 165 163 163 175 184 189 193 179 167 200 157 147 216 200 172 198 195 214 222 197 180 185 187 169 171 179 174 178 183 178 177 173 173 178 178 178 179 180 183 182 184 190 199 204 199 189 184 192 206 215 221 199 182 194 200 199 205 209 212 215 216 217 221 226 235 242 239 241 245 245 254 262 266 272 272 269 275 276 289 319
261 241 231 242 252 290 349 314 299 289 285 322 311 280 11 90 46 66 153 171 186 185 188 198 177 160 189 176 180 200 163 173 217 212 216 208 190 179 174 184 177 175 185 178 178 187 183 181 178 177 182 181 183 182 180 184 182 182 189 197 202 197 190 185 190 202 208 210 210 199 192 196 204 209 213 216 219 220 217 220 225 230 240 241 237 243 249 256 262 263 273 278 266 254 258 285 323
264 297 283 278 301 335 309 283 283 287 299 328 327 310 347 100 135 158 181 189 187 182 186 197 185 171 186 186 189 178 153 188 226 225 223 207 190 179 168 186 190 181 185 178 180 191 186 183 180 179 184 184 186 184 182 186 183 182 189 193 197 193 190 193 195 205 209 205 211 216 203 199 208 214 220 223 222 222 217 218 225 227 235 244 242 243 249 252 257 258 264 278 277 281 321 338 313
263 32 342 309 328 316 292 294 295 288 294 319 56 47 307 300 204 170 187 201 192 183 187 194 188 185 189 179 177 176 174 180 190 215 218 205 192 174 166 186 190 182 183 177 183 192 189 184 181 181 185 186 188 185 183 188 185 184 190 194 196 193 194 198 197 206 218 214 208 214 214 210 211 215 223 227 224 223 221 221 228 230 231 241 246 246 248 251 255 259 266 279 275 283 312 294 277
271 333 358 325 310 297 297 300 283 283 298 302 316 269 276 295 245 189 197 220 211 191 192 193 190 190 185 182 175 176 190 179 168 199 212 205 191 169 173 188 182 177 183 182 183 190 192 185 181 183 185 187 190 187 185 189 189 187 191 197 198 196 199 198 193 200 211 220 216 208 211 217 218 216 220 226 227 225 223 223 230 235 234 240 247 247 249 252 255 252 256 269 271 270 272 268 266
284 320 335 306 282 275 269 267 270 289 294 288 295 293 290 277 215 187 206 239 233 193 190 190 192 188 180 196 187 173 197 190 173 189 199 211 200 178 183 192 178 174 186 188 184 186 188 184 182 186 186 188 191 188 187 190 192 190 191 199 200 198 202 196 190 196 196 205 215 209 206 211 219 220 218 223 230 229 226 223 227 233 236 240 243 245 251 255 259 263 260 256 257 262 263 267 271
303 314 305 286 278 269 257 256 273 290 282 291 303 301 301 294 197 157 222 270 313 162 176 175 177 183 185 200 188 169 186 189 184 186 168 208 224 193 186 189 179 177 183 185 184 183 182 181 183 186 187 190 190 190 190 190 193 193 194 201 201 200 202 193 191 197 196 200 209 208 203 205 214 221 218 222 230 232 232 230 229 233 235 238 239 241 251 262 269 272 263 252 258 262 257 259 270
280 286 279 283 284 277 272 263 257 276 282 285 277 261 262 282 341 138 214 158 107 147 168 164 164 177 185 193 186 173 187 186 186 186 158 179 223 206 190 186 181 181 179 180 184 182 180 181 181 183 186 189 190 191 190 191 194 194 196 201 204 204 202 199 198 198 200 204 206 207 208 210 219 226 225 226 229 231 236 235 232 235 235 234 238 241 245 253 263 269 265 264 278 272 255 257 268
236 255 268 284 288 284 293 302 287 278 286 279 255 222 257 293 349 3 238 142 108 132 155 164 169 176 177 183 190 177 176 183 182 183 171 180 199 200 194 187 181 184 181 180 183 179 177 180 181 184 186 188 191 192 189 190 192 193 197 201 207 210 206 208 211 205 203 204 204 210 216 217 221 228 230 228 224 226 237 240 233 231 233 231 233 239 240 240 247 255 254 258 277 273 260 263 266
227 240 248 260 279 284 283 287 280 278 294 293 258 153 8 292 305 12 19 71 70 109 143 158 166 172 174 176 187 177 171 189 186 179 186 192 188 186 192 188 183 187 184 182 181 177 176 178 181 186 187 189 193 191 189 190 187 190 198 201 209 213 211 212 216 215 211 207 207 213 219 220 220 224 233 238 234 227 238 250 242 231 234 236 234 237 240 240 242 245 246 251 261 264 264 268 270
260 269 282 275 274 282 293 299 296 299 310 309 303 144 180 273 25 35 64 88 75 97 129 147 157 164 171 169 173 178 180 185 183 180 187 193 186 178 183 187 187 189 185 181 179 175 178 180 181 184 183 188 193 191 190 186 182 195 202 202 208 213 213 214 217 221 223 219 217 219 220 224 225 223 226 240 243 237 243 251 243 235 234 236 235 235 236 237 237 238 243 251 259 264 269 274 275
271 276 286 287 272 265 283 300 304 309 315 332 337 308 203 14 72 48 49 91 93 103 128 145 148 150 163 167 166 177 184 172 172 185 190 190 186 179 182 187 190 193 187 180 178 177 180 180 179 182 183 188 192 192 193 186 183 200 206 202 208 213 214 216 219 222 225 224 223 223 226 229 229 226 227 236 240 243 246 235 229 234 234 232 231 229 230 233 237 243 247 250 255 264 272 276 277
282 254 272 324 310 303 323 311 305 301 297 326 308 285 43 44 106 69 25 42 83 100 128 137 132 145 161 167 166 176 180 163 164 180 184 184 186 185 189 192 193 198 193 182 179 181 183 179 179 184 183 185 190 191 195 194 191 201 207 205 208 212 213 216 218 220 221 222 224 226 231 235 234 230 229 235 238 241 247 235 226 236 237 232 231 234 237 240 246 252 253 252 253 258 266 272 278
288 268 325 347 326 312 323 300 310 312 303 327 308 314 28 338 69 79 21 10 83 94 113 124 134 150 154 156 170 178 167 155 161 172 175 178 182 185 190 194 196 199 195 186 181 181 183 177 174 183 186 186 192 195 198 201 195 194 199 203 205 205 210 214 215 218 218 219 224 227 231 236 239 240 236 235 237 239 245 241 230 236 244 241 237 241 244 238 244 252 251 250 252 255 263 268 275
265 287 318 327 301 293 291 282 301 305 295 304 313 324 352 323 19 82 39 21 58 91 102 116 141 148 141 158 180 178 156 156 168 167 167 172 179 187 189 192 196 198 194 189 186 182 177 164 158 178 198 201 200 203 210 210 201 192 191 198 201 198 203 210 209 211 214 218 224 227 229 233 237 241 241 236 237 239 241 240 233 233 242 248 243 241 241 234 239 250 250 251 252 253 261 266 270
225 271 292 267 264 280 283 288 285 281 288 295 300 310 329 343 26 53 42 30 25 51 66 61 104 145 171 180 189 184 149 151 165 160 161 169 179 189 188 190 197 196 188 185 183 171 162 161 155 162 196 210 206 211 219 213 200 193 190 194 199 198 199 207 208 207 214 222 228 228 229 232 231 232 234 234 235 235 236 239 237 233 234 241 241 235 235 233 235 244 247 246 244 243 254 265 270
224 243 271 266 260 245 247 282 296 299 304 289 283 287 9 37 37 45 54 53 29 33 58 53 44 50 199 159 145 173 141 145 161 162 163 169 182 192 190 192 199 197 187 180 172 153 146 158 158 158 187 204 204 210 215 207 192 191 193 194 199 199 198 203 203 206 215 222 226 225 226 227 226 227 230 234 234 232 236 240 241 240 236 240 247 241 232 230 231 237 244 245 246 249 252 259 264
300 288 294 299 312 297 276 285 290 296 300 298 299 303 25 35 17 24 40 63 54 39 62 77 69 43 244 104 108 115 123 145 163 164 169 178 188 193 190 191 194 192 184 170 156 150 150 157 163 171 189 200 204 206 205 195 190 192 196 200 202 200 198 199 201 207 214 218 218 218 221 225 227 231 233 233 234 234 236 240 243 245 240 238 246 243 230 226 232 237 243 250 255 257 257 256 257
Height
764 766 765 766 766 767 767 768 787 789 794 806 793 793 784 763 759 758 761 755 754 748 739 744 743 744 752 762 767 767 769 772 775 781 791 780 773 781 781 783 784 784 787 788 790 792 794 796 797 799 801 803 805 807 808 810 811 812 814 815 817 819 820 822 823 825 826 826 827 827 828 829 830 830 831 832 832 833 833 833 834 834 835 835 836 836 836 837 837 838 838 838 838 839 840 841 842
765 766 764 767 765 770 774 771 793 795 798 810 793 790 784 767 765 763 761 756 754 745 740 745 744 745 749 754 757 765 771 765 763 767 772 770 774 780 780 783 784 785 787 788 790 792 794 795 797 799 801 803 806 808 809 810 812 813 815 816 818 820 821 823 824 826 827 828 828 829 830 830 831 832 833 834 834 834 834 834 835 835 836 836 837 837 837 837 838 838 838 838 839 840 841 842 843
765 766 764 766 766 770 774 777 794 801 807 816 801 791 787 781 776 766 755 750 747 740 744 747 748 750 753 762 762 771 778 765 760 763 768 772 774 778 781 782 783 786 787 789 792 793 795 796 798 800 802 805 807 808 810 811 812 814 816 818 820 821 823 824 826 827 828 829 830 830 831 831 832 833 834 835 835 835 835 835 836 836 837 837 837 837 838 838 839 839 839 839 840 841 842 843 844
764 765 764 765 771 775 780 788 794 804 812 808 803 793 789 788 775 765 752 746 743 740 749 751 755 753 755 772 767 769 776 767 763 763 770 773 773 777 780 782 784 786 787 789 791 794 795 797 799 801 804 806 808 809 810 812 813 815 817 819 821 822 824 826 827 828 829 830 831 832 832 833 833 834 835 835 836 836 836 836 836 837 838 838 838 838 838 839 840 840 840 840 841 842 843 844 845
765 765 764 764 777 783 785 795 793 802 810 800 799 792 789 787 770 762 753 747 742 743 752 754 762 756 755 766 763 771 774 766 764 762 769 773 774 777 779 782 784 784 787 788 790 793 795 797 799 802 804 806 808 810 811 812 814 816 817 819 821 822 824 826 828 829 830 831 832 833 833 833 834 835 835 836 837 836 837 837 837 838 838 839 839 839 839 840 840 841 841 841 842 843 844 845 846
764 765 765 765 775 779 787 801 799 800 798 792 797 789 786 784 771 763 754 749 743 745 750 753 761 761 765 763 759 767 767 765 764 763 769 774 776 778 780 782 784 785 787 789 790 792 794 797 799 801 803 805 807 809 811 812 814 816 817 819 820 821 823 826 829 830 831 832 833 834 834 834 835 835 836 836 837 837 837 837 838 839 839 839 840 840 839 840 841 841 841 841 843 844 845 846 847
762 768 770 774 778 779 795 806 802 801 789 785 791 785 782 781 775 767 759 755 752 750 749 753 755 763 773 766 765 765 760 763 762 765 770 773 777 778 781 783 785 787 788 790 791 792 795 797 798 800 802 804 806 808 810 811 814 816 817 818 820 821 823 825 829 831 832 833 834 835 835 835 835 835 836 836 837 837 837 838 838 839 839 840 840 840 840 841 841 842 842 842 843 844 846 847 848
760 767 769 781 791 789 801 806 798 797 787 779 780 778 776 774 775 773 767 762 761 759 753 753 751 767 777 766 773 767 758 763 761 767 770 773 777 778 782 783 786 788 790 792 792 794 796 798 799 801 802 804 805 808 809 811 814 816 818 818 820 822 823 826 829 831 833 834 834 835 835 835 836 835 836 836 837 837 838 838 838 839 840 840 840 840 840 841 842 842 842 843 844 845 847 848 848
757 765 770 780 796 801 804 803 796 791 785 777 774 773 771 768 774 775 771 765 765 767 760 752 752 771 778 769 776 765 758 765 763 768 771 775 777 779 783 783 787 788 792 793 794 796 798 800 801 803 804 806 807 809 811 812 815 816 818 820 821 823 824 827 829 830 833 836 835 835 835 835 835 835 836 836 836 837 838 838 838 839 840 840 840 840 841 842 843 843 843 843 844 846 847 848 849
756 762 771 780 790 802 804 801 796 789 782 776 772 771 769 767 775 777 772 770 769 774 765 751 754 770 776 776 778 765 761 765 764 770 772 776 777 779 783 784 787 788 792 793 795 798 799 802 802 805 806 808 809 811 813 814 816 817 819 821 822 823 825 827 829 829 832 836 836 835 835 835 835 835 836 835 836 837 837 838 838 839 840 840 840 840 841 842 843 843 843 844 845 846 847 848 849
761 757 762 784 789 793 795 798 798 789 781 775 773 768 766 766 774 778 774 772 768 774 768 757 764 770 775 778 776 765 761 764 765 769 772 776 778 780 782 785 788 789 792 793 796 798 800 803 804 806 807 809 811 812 814 816 817 818 819 820 823 824 826 828 829 830 831 835 835 835 835 835 835 835 835 835 836 837 837 837 838 839 840 840 840 841 841 842 843 843 843 844 846 847 848 849 849
765 760 762 788 787 782 783 791 796 788 781 778 777 767 760 765 776 780 778 776 769 772 768 764 768 767 778 782 773 764 762 767 767 769 773 777 779 780 782 785 788 789 792 793 796 798 800 803 805 807 808 810 811 813 814 816 818 819 820 822 824 825 827 828 829 830 831 834 835 835 835 834 835 835 835 835 836 837 837 837 838 839 839 840 840 841 842 842 843 842 844 845 846 847 848 848 848
764 763 769 787 775 774 777 782 785 784 785 778 774 765 758 770 782 778 776 776 771 774 770 763 763 764 780 781 770 764 764 768 767 770 774 776 779 781 784 785 788 790 792 794 795 798 800 803 805 807 809 810 812 814 815 816 818 819 821 823 825 825 826 828 829 830 831 833 834 834 834 834 835 835 835 835 836 837 837 837 838 839 839 839 840 841 842 842 842 842 843 845 846 847 847 847 847
758 756 769 785 771 771 776 780 779 781 788 775 767 762 759 770 775 770 770 776 773 772 766 757 758 770 780 779 776 770 766 768 768 772 773 777 780 781 785 787 789 791 793 794 796 798 799 801 804 806 807 810 812 813 815 816 818 819 821 822 824 825 826 828 828 829 830 832 832 833 833 834 835 834 835 835 836 836 837 837 838 839 839 839 840 841 842 842 842 842 843 845 845 846 846 846 846
750 750 763 783 778 775 777 779 777 781 784 770 766 761 761 764 762 766 768 774 773 762 759 756 755 770 779 779 781 771 765 767 768 772 774 777 780 782 785 787 789 791 793 795 796 798 799 801 802 805 806 808 811 812 814 815 817 819 820 821 822 824 825 826 827 828 828 830 830 831 832 833 834 834 834 835 835 836 837 837 838 839 839 839 840 841 841 842 842 842 843 844 845 845 845 845 846
739 746 766 786 783 781 778 774 776 782 778 765 762 758 765 765 757 767 764 764 769 760 761 765 759 764 770 772 772 764 763 767 769 773 775 778 780 783 785 787 790 790 793 795 797 799 800 802 802 804 806 807 810 811 813 814 816 818 819 820 821 822 824 825 826 827 827 828 829 830 832 832 833 833 834 834 835 836 836 837 838 839 839 839 840 840 841 842 842 842 843 844 844 844 845 845 845
735 749 775 787 780 781 779 774 778 781 773 763 760 759 768 769 760 761 756 758 769 768 767 771 767 762 761 763 763 761 764 766 768 772 775 779 781 783 786 787 789 791 793 794 796 799 800 802 802 804 805 807 809 810 812 814 816 817 818 820 821 822 823 824 825 827 827 828 829 830 831 832 832 833 833 834 835 835 836 837 838 839 838 838 839 840 841 842 842 842 843 844 844 844 844 845 845
743 761 783 787 778 778 775 772 771 771 771 766 762 761 766 772 767 757 758 767 770 773 773 772 772 765 760 760 761 762 765 766 768 771 774 778 780 783 785 787 789 791 793 795 797 798 800 801 801 804 805 807 808 810 811 813 816 817 818 819 821 822 823 824 825 827 828 828 829 829 830 831 832 833 833 834 835 835 836 837 838 838 837 837 838 840 841 842 842 842 843 844 843 843 844 844 844
749 762 779 781 771 768 763 764 764 764 769 766 762 761 764 770 766 758 767 777 772 778 781 775 777 775 768 762 762 764 764 767 768 771 773 774 777 781 783 786 788 791 792 794 796 798 800 801 801 803 804 806 807 808 810 812 815 816 818 819 820 822 823 825 825 827 828 828 829 829 830 831 832 833 833 834 835 836 837 837 837 837 837 838 839 840 842 842 842 842 842 843 842 842 843 843 843
748 756 773 771 758 759 757 758 761 760 762 765 764 761 764 766 763 763 772 778 775 780 782 779 783 782 774 765 762 764 765 768 769 771 772 772 774 777 781 784 786 789 792 793 795 798 800 801 802 802 804 805 806 807 809 811 813 815 817 818 820 822 823 824 825 827 827 828 829 830 831 831 832 832 834 835 835 836 836 836 836 837 838 839 839 840 841 841 842 842 841 841 841 842 842 842 842
746 752 766 760 749 758 757 754 758 757 757 761 763 764 769 765 763 768 772 779 780 778 776 775 778 775 771 767 763 764 766 767 769 770 770 772 775 775 778 782 785 788 790 792 794 797 799 801 802 803 804 805 806 807 809 811 812 814 816 818 820 821 823 824 825 826 827 828 829 830 831 832 833 832 833 834 834 834 835 835 836 837 839 839 839 839 839 840 841 841 840 840 841 841 841 841 841
748 753 753 748 746 758 756 751 756 755 755 759 762 768 769 764 767 770 772 780 779 771 769 768 769 768 765 765 762 762 765 766 767 768 769 772 775 775 777 780 785 787 789 791 793 796 798 800 802 803 805 806 807 808 809 811 812 814 815 817 819 820 822 823 824 825 826 828 828 830 830 831 832 832 832 832 833 834 834 836 836 837 838 839 839 838 839 840 840 841 840 841 840 840 840 840 841
754 759 747 744 743 752 754 749 754 753 757 763 764 764 762 768 775 770 769 774 768 761 761 762 762 762 761 761 761 761 763 765 765 766 768 770 773 775 777 780 784 786 788 790 792 795 797 799 801 803 805 806 807 808 809 811 811 813 815 817 818 819 821 822 823 824 825 827 828 828 829 830 830 831 832 832 833 834 835 836 837 837 837 838 838 838 839 839 840 840 840 840 840 839 839 839 840
749 758 749 744 741 747 749 747 752 752 759 762 759 761 762 772 776 767 767 767 760 756 755 757 757 757 759 759 759 760 761 762 763 765 767 768 771 774 775 779 782 784 787 789 792 794 796 798 800 803 805 807 807 808 809 810 811 813 815 816 818 819 821 821 822 824 825 826 827 828 828 829 830 831 832 833 834 834 834 835 835 836 836 837 838 838 839 839 839 840 840 840 839 839 838 839 839
745 753 747 741 740 744 745 746 753 754 757 758 757 764 765 765 767 766 767 763 756 754 755 756 756 756 758 759 758 759 759 759 760 764 767 769 770 772 775 778 781 783 785 788 791 792 794 796 799 802 804 806 807 808 809 809 810 813 815 816 818 820 821 822 823 824 825 826 827 828 828 829 830 831 832 833 833 834 834 834 834 834 835 837 837 838 838 839 839 840 840 839 839 838 838 838 838
747 747 743 740 741 742 746 749 753 755 755 756 761 768 764 759 763 768 765 759 754 754 758 758 758 758 756 758 758 757 758 757 758 762 766 768 769 770 773 777 779 782 784 786 789 791 793 795 798 800 803 805 807 809 810 809 809 811 815 816 818 820 822 823 824 825 826 827 828 829 830 830 830 830 831 832 833 834 834 834 834 834 835 837 837 837 838 838 839 839 840 839 839 838 838 837 837
741 741 739 740 741 740 745 750 750 752 754 755 763 769 764 757 764 772 764 755 754 756 761 763 767 763 755 757 758 757 757 756 757 759 762 766 768 769 772 776 779 780 783 785 787 789 792 794 797 799 802 804 806 809 811 811 811 812 814 817 819 819 820 822 823 825 826 827 828 828 829 829 829 830 832 832 833 834 834 834 834 834 835 836 836 836 837 838 839 840 840 839 839 839 838 836 836
736 739 743 742 739 742 746 749 750 751 754 753 758 766 763 760 766 768 759 753 754 758 762 768 772 764 754 757 759 759 756 755 757 757 760 764 767 768 772 775 777 779 782 783 786 788 791 793 796 798 801 803 805 808 810 813 814 815 816 818 820 819 818 820 822 824 825 826 827 827 827 828 830 830 832 833 832 833 833 834 834 834 835 835 836 835 835 837 838 839 839 838 838 838 837 836 836
737 738 751 750 743 754 754 750 751 753 757 750 754 772 772 767 766 759 753 752 753 758 764 768 768 761 756 757 760 761 756 755 757 757 758 762 765 767 770 774 775 778 781 782 784 786 790 792 795 797 799 802 804 806 808 811 813 815 817 819 821 820 820 821 823 825 826 827 828 828 829 830 831 831 831 831 831 832 832 833 833 833 834 834 835 836 836 836 837 838 837 836 837 837 836 836 836
742 740 751 757 761 769 757 750 750 752 756 746 758 785 779 766 760 753 752 753 756 763 767 766 763 760 758 757 759 762 760 757 756 757 758 760 763 764 767 771 774 777 779 781 783 784 787 790 793 796 798 800 802 804 807 809 811 813 816 818 820 821 822 823 824 825 827 827 828 828 829 829 830 830 830 830 830 831 831 832 832 832 834 834 835 836 837 837 837 838 837 836 836 836 836 836 836
745 747 750 759 776 776 753 749 752 755 755 744 762 787 777 763 757 752 751 753 758 764 766 766 763 759 758 757 758 761 763 760 755 756 758 759 762 763 765 768 771 775 778 781 782 783 785 787 791 794 796 799 800 803 805 807 809 812 814 816 818 819 821 822 823 824 825 826 826 826 827 827 828 829 829 829 829 830 831 831 832 832 833 833 834 836 836 837 837 837 837 836 836 836 836 836 836
744 758 764 763 774 774 756 748 747 755 755 745 763 781 770 759 755 750 749 752 757 762 764 765 763 760 759 758 757 760 762 758 755 755 757 759 761 762 765 767 768 772 775 779 781 782 784 786 789 792 795 797 799 802 804 806 808 810 812 814 815 817 819 820 821 822 823 824 824 824 825 826 827 828 828 828 829 829 830 830 831 832 832 833 834 835 836 836 836 836 836 835 836 836 836 835 836
747 757 768 765 770 775 764 749 739 743 750 750 761 771 764 754 750 749 748 752 757 761 763 763 765 763 761 761 757 757 758 756 756 756 756 759 761 762 765 767 768 771 773 776 779 781 783 785 788 790 793 796 798 801 803 805 807 809 811 812 814 815 817 818 819 820 820 821 822 822 824 825 826 827 827 827 828 829 830 830 830 831 832 833 834 834 835 835 835 835 835 835 834 835 835 835 836
755 753 759 757 760 767 762 751 738 735 746 753 756 761 756 747 746 749 749 751 755 759 762 763 766 765 763 763 759 756 757 757 757 756 756 759 761 763 765 767 768 770 773 774 777 780 781 784 787 788 792 795 798 800 802 805 806 808 810 811 813 814 815 817 817 818 818 819 820 820 822 824 825 825 826 827 827 829 829 830 830 831 832 833 833 834 834 834 834 834 834 834 834 834 834 835 838
759 757 759 758 755 757 754 746 735 733 745 751 752 755 748 741 744 749 748 749 753 755 757 761 762 763 765 766 763 760 759 758 756 755 757 760 762 764 765 767 768 770 772 774 776 778 780 783 786 788 791 794 797 799 802 804 805 808 809 810 812 813 814 815 816 817 817 818 818 819 820 823 825 825 826 826 827 828 829 830 830 831 832 832 833 833 833 833 833 833 833 833 833 834 833 834 837
751 753 757 760 759 755 743 734 727 729 744 748 746 748 741 742 748 749 748 747 750 752 753 759 760 759 763 766 767 765 761 757 754 755 757 760 763 764 766 767 768 770 773 774 776 778 780 783 785 788 791 793 796 799 801 803 804 806 807 809 810 812 814 815 816 816 816 817 817 818 820 822 824 825 825 826 827 828 829 830 830 831 831 832 832 832 833 833 833 833 832 832 832 833 833 833 834
746 753 757 754 755 754 738 728 724 724 744 750 743 742 739 744 750 748 748 747 750 753 755 758 758 758 758 761 765 766 764 758 753 755 758 760 762 764 766 768 768 771 773 774 776 777 780 782 785 787 790 792 795 797 799 801 802 804 806 807 809 810 813 814 815 816 815 816 817 816 819 822 823 824 825 826 827 828 828 829 829 830 830 831 831 832 832 832 832 832 832 832 832 831 832 832 832
749 754 757 753 751 751 734 725 723 723 743 750 739 742 741 740 747 746 744 748 752 751 753 757 756 756 756 756 760 764 768 762 755 756 758 761 763 764 767 768 768 771 773 775 776 778 780 782 784 787 789 792 794 796 798 799 801 803 804 805 807 809 811 813 814 815 815 815 816 816 818 821 822 823 825 825 827 827 828 828 828 829 829 830 830 831 832 832 831 832 832 831 831 831 831 830 831
753 754 757 759 750 743 733 723 720 722 740 746 737 742 742 734 741 746 744 746 749 746 748 753 754 754 755 755 758 763 768 765 760 758 760 763 763 764 768 767 769 771 773 776 777 778 781 782 784 786 789 791 793 795 797 798 800 801 802 803 805 807 809 811 812 813 814 814 815 816 818 820 821 823 824 825 826 826 827 828 828 828 828 829 830 830 831 831 831 831 831 831 830 830 830 830 831
753 754 758 758 743 741 745 734 722 721 727 731 732 740 743 739 742 744 742 743 745 745 745 748 750 751 752 752 755 763 766 765 763 761 761 764 762 763 767 767 769 773 773 776 778 779 781 783 784 786 788 790 792 794 796 797 799 800 802 802 804 805 807 809 811 812 813 813 813 815 817 818 820 822 823 824 825 826 826 827 827 827 827 828 829 829 830 830 830 830 829 830 829 830 830 829 830
749 747 751 752 739 735 741 735 727 725 722 719 731 749 749 749 755 750 742 743 744 744 746 746 747 747 748 750 753 760 764 763 764 765 764 764 761 762 766 767 770 773 774 776 778 779 781 782 784 786 788 790 791 793 795 796 798 799 800 802 803 804 805 807 809 811 811 812 813 814 816 818 819 821 822 823 824 825 825 826 826 826 826 827 828 829 829 829 829 829 828 828 829 829 829 829 829
750 739 735 736 733 731 734 736 737 743 742 725 732 765 767 754 760 757 746 746 747 745 747 748 748 748 750 754 755 758 763 764 764 765 763 760 759 763 765 766 769 772 773 775 778 779 780 782 784 786 787 789 791 792 794 795 796 798 800 801 802 802 804 806 807 809 810 811 812 813 815 817 818 820 821 822 823 824 824 824 825 825 826 826 827 828 828 828 828 828 828 828 828 828 829 829 829
754 735 723 724 727 733 737 739 744 754 754 729 726 762 776 759 755 753 745 746 746 746 748 748 747 749 752 754 756 759 765 768 768 766 763 759 759 762 764 765 767 769 771 774 777 778 780 782 783 785 787 788 790 791 793 795 796 797 799 800 801 802 803 805 806 808 808 810 811 812 813 815 817 819 821 821 822 823 823 823 824 824 825 825 826 827 827 827 827 827 827 827 827 827 828 828 829
751 725 721 728 730 737 739 738 746 746 739 732 730 748 771 768 753 744 742 746 746 746 747 746 744 747 749 750 753 757 761 765 769 768 764 760 758 760 762 764 766 768 770 772 775 777 778 780 782 784 786 787 789 790 792 793 795 797 798 800 801 801 803 804 806 807 808 809 810 810 811 814 816 818 820 820 821 822 822 822 823 823 824 824 825 826 826 826 826 826 826 826 826 827 827 828 829
739 717 722 730 731 737 735 738 746 738 739 754 745 740 766 773 750 738 742 747 749 747 745 744 743 744 746 748 749 752 753 755 760 762 760 758 758 759 761 763 765 766 769 771 773 776 777 779 781 783 785 786 788 789 790 792 794 796 798 799 800 801 802 804 805 806 807 808 808 809 809 810 812 815 817 819 820 821 821 821 822 822 823 823 824 825 825 825 825 825 825 826 826 826 827 828 828
726 716 724 728 729 732 732 739 742 740 755 769 751 740 764 771 750 744 750 749 747 744 741 742 743 743 745 747 747 748 750 750 753 756 756 757 757 758 760 762 764 765 767 769 771 774 776 778 780 782 783 785 787 788 790 792 794 795 797 798 799 801 802 803 804 805 806 806 807 808 809 808 810 812 814 816 819 820 820 820 821 821 822 822 823 824 824 824 824 824 824 825 825 826 826 827 827
722 725 732 734 733 728 730 732 735 754 770 763 747 739 755 770 756 743 744 741 736 738 742 742 740 740 743 742 741 743 746 748 750 751 754 759 759 757 759 761 762 764 766 769 771 773 775 776 779 781 782 784 786 787 789 791 793 795 796 798 799 801 802 802 803 804 805 806 806 807 808 808 809 811 812 814 817 819 819 820 820 820 821 821 822 823 823 824 824 824 824 824 825 825 825 826 826
727 735 740 748 747 738 741 739 743 772 778 756 742 733 747 770 756 733 729 726 725 733 740 741 738 738 738 739 738 737 741 745 746 748 752 759 761 757 758 759 760 763 765 767 770 771 773 775 777 779 781 783 785 786 788 790 793 795 796 798 799 800 801 801 802 803 804 805 806 807 807 807 808 810 812 813 814 817 818 818 818 819 820 820 821 822 822 823 823 823 824 824 824 824 824 825 825
733 740 745 763 768 764 771 767 763 775 764 741 733 733 750 764 743 724 721 717 716 724 731 733 733 734 735 736 736 735 737 741 744 745 748 753 756 755 755 757 759 761 763 765 768 769 771 773 775 778 780 782 784 785 787 790 793 795 797 798 798 799 800 800 801 802 803 804 805 806 806 807 807 809 812 812 813 814 816 817 817 818 818 819 820 820 821 821 822 822 822 823 823 823 823 823 823
737 740 746 765 776 781 789 779 771 771 754 730 719 730 757 762 736 718 715 712 710 716 723 726 726 729 731 730 731 732 734 738 740 742 745 747 750 751 753 755 757 760 762 764 766 767 769 772 774 776 778 781 783 785 787 790 793 795 796 796 796 797 798 799 800 801 803 804 805 805 806 806 807 808 810 811 811 812 814 815 816 817 817 817 818 818 819 819 820 820 821 821 822 823 823 823 822
732 725 730 749 759 771 782 775 769 766 752 732 722 736 761 761 736 712 706 709 708 712 719 720 720 723 725 726 728 731 732 734 736 739 741 743 744 748 751 753 756 758 760 762 764 766 768 771 773 775 778 780 782 785 787 790 792 792 792 793 794 795 797 798 800 801 802 803 804 804 804 805 806 807 807 808 809 810 811 813 815 816 816 816 816 817 817 818 819 819 820 820 821 822 822 822 822
730 715 729 744 736 740 756 757 751 751 753 749 740 741 740 732 718 703 702 708 707 713 719 719 721 722 725 727 728 729 730 731 735 738 739 741 742 746 749 751 754 756 758 760 762 764 767 770 772 774 777 779 781 784 787 789 790 789 789 791 793 794 796 797 798 800 801 802 802 802 803 804 805 805 805 807 808 808 809 811 814 815 815 815 815 816 816 817 818 818 818 819 819 820 821 821 820
732 726 737 730 710 718 747 756 743 744 764 762 745 740 730 723 721 709 707 714 712 715 720 722 725 724 727 730 728 728 727 728 732 735 737 739 741 744 747 750 752 754 756 758 760 763 766 768 771 774 776 779 781 784 786 788 789 789 789 790 792 793 794 796 797 798 800 800 801 801 802 803 804 804 804 806 807 807 808 810 812 815 815 815 815 815 815 816 817 817 817 818 818 819 819 819 819
736 740 731 716 711 718 741 763 762 762 776 764 745 745 743 744 743 723 716 722 719 719 722 726 729 727 729 730 728 727 725 725 729 731 733 736 738 742 746 748 751 752 753 756 759 763 766 769 772 774 777 779 782 783 785 788 789 789 789 789 791 792 793 794 795 797 798 799 800 800 801 801 802 803 803 804 806 807 807 808 811 814 815 815 815 814 815 815 815 816 816 816 816 817 817 817 817
725 729 716 723 746 748 746 763 774 779 785 772 754 748 745 746 743 732 728 727 723 723 723 727 730 730 731 729 727 725 724 725 727 729 732 734 736 740 743 746 749 750 752 754 758 762 766 769 772 775 778 780 783 784 785 788 789 789 789 789 790 791 792 793 794 795 796 797 798 798 799 800 801 802 802 803 804 805 805 806 809 812 813 814 815 815 814 813 813 814 814 814 815 815 815 815 815
716 721 717 721 739 747 747 750 755 766 779 778 767 759 750 738 726 727 732 728 725 727 726 728 730 728 728 727 725 723 723 726 728 730 733 734 736 738 740 744 747 749 751 753 757 762 764 767 771 775 778 779 782 785 786 787 787 787 787 788 789 790 790 791 792 793 794 794 795 796 797 798 800 801 801 802 803 803 803 804 806 809 811 814 815 815 814 812 811 812 812 813 813 813 813 813 813
728 734 736 730 726 729 737 740 739 749 767 775 773 767 753 730 716 721 728 726 725 726 730 733 732 728 726 724 725 723 722 725 727 728 731 732 734 736 738 742 745 748 751 753 756 760 762 766 771 776 777 775 778 782 785 785 785 785 785 786 787 788 789 790 790 792 792 793 794 795 796 797 798 799 799 800 801 801 802 803 804 807 810 813 814 814 812 810 809 810 810 811 811 811 811 810 811
730 736 737 736 732 734 751 759 746 741 754 762 765 770 758 732 717 718 720 721 721 721 725 729 729 728 725 722 724 724 723 724 725 726 728 729 731 734 736 739 742 746 749 752 755 758 762 767 770 772 773 773 775 779 782 782 782 783 784 784 785 786 788 789 789 791 791 792 793 794 795 795 795 797 798 798 799 800 801 801 802 805 807 809 811 811 810 809 808 808 809 809 810 810 810 809 809